Date String (YYYY-MM-DD hh:mm:ss) UTC,Instrument flags,absolute air pressure of the measurement (hPa),sample flow rate (lpm),inlet stack bypass flow (lpm),air temperature of the measurement (°C),ambient temperature measured by the external sensor (°C),aerosol sample conditioner tube jacket temperature (°C),OPC LED temperature (°C),internal box temperature (°C),relative humidity of the measurement (%),span deviation,mass concentration of particles derived from Lorenz-Mie calculation of OPC scattering (μg/m³),mass concentration of particles derived from Lorenz-Mie calculation of OPC scattering (μg/m³),mass concentration of particles derived from Lorenz-Mie calculation of OPC scattering (μg/m³)
DateTimeUTC,F1_M11,P_M11,Q1_M11,Q2_M11,T1_M11,T2_M11,T3_M11,T4_M11,T5_M11,U1_M11,ZSPAN_M11,X0_M11,X2_M11,X1_M11
2024-01-24 03:00:00,SystemResetWarning,0825.9,5.00,000.00,025.9,024.5,000.0,034.2,027.2,17.5,0000.0,0005.63,0003.01,0002.44
2024-01-24 03:01:00,SystemResetWarning,0826.0,5.01,000.00,025.9,024.5,000.0,034.2,027.2,17.5,0000.0,0006.01,0002.86,0002.37
2024-01-24 03:02:00,SystemResetWarning,0825.9,5.01,000.00,025.9,024.5,000.0,034.2,027.2,17.5,0000.0,0006.23,0002.93,0002.40
2024-01-24 03:03:00,SystemResetWarning,0825.9,4.99,000.00,025.9,024.5,000.0,034.2,027.2,17.5,0000.0,0006.49,0003.05,0002.47
2024-01-24 03:04:00,SystemResetWarning,0825.9,4.99,000.00,025.8,024.5,000.0,034.2,027.2,17.5,0000.0,0006.52,0003.10,0002.52
2024-01-24 03:05:00,SystemResetWarning,0825.9,5.00,000.00,025.8,024.5,000.0,034.2,027.2,17.6,0000.0,0006.16,0003.02,0002.49
2024-01-24 03:06:00,SystemResetWarning,0825.9,5.00,000.00,025.8,024.5,000.0,034.2,027.2,17.6,0000.0,0006.03,0003.06,0002.53
2024-01-24 03:07:00,SystemResetWarning,0825.9,5.00,000.00,025.8,024.5,000.0,034.2,027.2,17.6,0000.0,0006.29,0003.19,0002.72
2024-01-24 03:08:00,SystemResetWarning,0825.8,5.01,000.00,025.8,024.5,000.0,034.2,027.2,17.5,0000.0,0006.82,0003.34,0002.89
2024-01-24 03:09:00,SystemResetWarning,0825.9,5.00,000.00,025.8,024.5,000.0,034.2,027.1,17.5,0000.0,0006.73,0003.51,0003.11
2024-01-24 03:10:00,SystemResetWarning,0825.9,4.99,000.00,025.8,024.6,000.0,034.2,027.2,17.3,0000.0,0007.54,0003.68,0003.28
2024-01-24 03:11:00,SystemResetWarning,0825.9,4.99,000.00,025.8,024.6,000.0,034.2,027.2,17.3,0000.0,0008.02,0003.91,0003.48
2024-01-24 03:12:00,SystemResetWarning,0826.0,5.00,000.00,025.8,024.6,000.0,034.2,027.2,17.4,0000.0,0008.01,0004.14,0003.68
2024-01-24 03:13:00,SystemResetWarning,0826.0,5.00,000.00,025.8,024.6,000.0,034.2,027.2,17.4,0000.0,0008.51,0004.43,0003.92
2024-01-24 03:14:00,SystemResetWarning,0825.9,5.00,000.00,025.8,024.6,000.0,034.2,027.2,17.4,0000.0,0009.76,0004.66,0004.15
2024-01-24 03:15:00,SystemResetWarning,0826.0,5.00,000.00,025.8,024.6,000.0,034.1,027.2,17.6,0000.0,0010.19,0004.86,0004.35
2024-01-24 03:16:00,SystemResetWarning,0826.0,5.00,000.00,025.8,024.6,000.0,034.1,027.2,17.6,0000.0,0010.54,0005.07,0004.52
2024-01-24 03:17:00,SystemResetWarning,0826.0,5.00,000.00,025.8,024.6,000.0,034.1,027.2,17.6,0000.0,0011.07,0005.25,0004.66
2024-01-24 03:18:00,SystemResetWarning,0826.0,5.00,000.00,025.8,024.6,000.0,034.1,027.2,17.5,0000.0,0011.45,0005.37,0004.75
2024-01-24 03:19:00,SystemResetWarning,0826.0,5.01,000.00,025.8,024.6,000.0,034.1,027.2,17.4,0000.0,0011.59,0005.50,0004.91
2024-01-24 03:20:00,SystemResetWarning,0826.0,5.00,000.00,025.8,024.6,000.0,034.1,027.2,17.2,0000.0,0011.61,0005.59,0005.02
2024-01-24 03:21:00,SystemResetWarning,0825.9,5.00,000.00,025.8,024.6,000.0,034.1,027.2,17.1,0000.0,0012.13,0005.69,0005.08
2024-01-24 03:22:00,SystemResetWarning,0826.0,4.99,000.00,025.8,024.6,000.0,034.1,027.2,17.0,0000.0,0012.06,0005.73,0005.13
2024-01-24 03:23:00,SystemResetWarning,0825.9,5.00,000.00,025.8,024.6,000.0,034.1,027.2,16.9,0000.0,0012.11,0005.79,0005.21
2024-01-24 03:24:00,SystemResetWarning,0825.9,5.00,000.00,025.8,024.6,000.0,034.1,027.2,16.9,0000.0,0012.11,0005.80,0005.26
2024-01-24 03:25:00,SystemResetWarning,0825.9,5.01,000.00,025.8,024.6,000.0,034.1,027.2,16.9,0000.0,0011.56,0005.87,0005.31
2024-01-24 03:26:00,SystemResetWarning,0825.9,5.00,000.00,025.8,024.6,000.0,034.1,027.2,16.7,0000.0,0011.55,0006.02,0005.42
2024-01-24 03:27:00,SystemResetWarning,0825.9,5.00,000.00,025.8,024.6,000.0,034.1,027.1,16.8,0000.0,0011.89,0006.18,0005.57
2024-01-24 03:28:00,SystemResetWarning,0825.9,5.00,000.00,025.7,024.7,000.0,034.1,027.2,16.8,0000.0,0011.79,0006.29,0005.70
2024-01-24 03:29:00,SystemResetWarning,0825.9,5.01,000.00,025.8,024.7,000.0,034.1,027.2,16.8,0000.0,0011.73,0006.45,0005.84
2024-01-24 03:30:00,SystemResetWarning,0825.9,5.01,000.00,025.7,024.7,000.0,034.1,027.2,16.8,0000.5,0011.91,0006.56,0005.92
2024-01-24 03:31:00,SystemResetWarning,0825.9,5.00,000.00,025.8,024.7,000.0,034.1,027.2,16.7,0000.8,0011.96,0006.66,0006.01
2024-01-24 03:32:00,SystemResetWarning,0825.9,4.99,000.00,025.8,024.7,000.0,034.1,027.2,16.7,0000.4,0011.22,0006.70,0006.08
2024-01-24 03:33:00,SystemResetWarning,0825.9,5.00,000.00,025.8,024.7,000.0,034.1,027.2,16.7,0001.6,0011.14,0006.76,0006.13
2024-01-24 03:34:00,SystemResetWarning,0825.9,5.00,000.00,025.8,024.7,000.0,034.1,027.2,16.7,0002.0,0011.11,0006.80,0006.15
2024-01-24 03:35:00,SystemResetWarning,0825.9,5.00,000.00,025.8,024.7,000.0,034.1,027.2,16.6,0001.8,0011.04,0006.82,0006.16
2024-01-24 03:36:00,SystemResetWarning,0825.9,5.00,000.00,025.8,024.7,000.0,034.1,027.2,16.6,0002.0,0011.04,0006.87,0006.18
2024-01-24 03:37:00,SystemResetWarning,0825.9,4.99,000.00,025.8,024.7,000.0,034.1,027.2,16.6,0001.6,0011.81,0006.86,0006.19
2024-01-24 03:38:00,SystemResetWarning,0825.9,5.00,000.00,025.8,024.7,000.0,034.1,027.2,16.5,0001.0,0012.19,0006.84,0006.19
2024-01-24 03:39:00,SystemResetWarning,0825.9,5.00,000.00,025.8,024.7,000.0,034.1,027.2,16.5,0001.7,0012.36,0006.85,0006.20
2024-01-24 03:40:00,SystemResetWarning,0825.9,5.01,000.00,025.7,024.7,000.0,034.1,027.1,16.5,0000.8,0012.78,0006.85,0006.19
2024-01-24 03:41:00,SystemResetWarning,0825.9,5.01,000.00,025.7,024.7,000.0,034.1,027.1,16.5,0000.7,0012.67,0006.81,0006.17
2024-01-24 03:42:00,SystemResetWarning,0825.9,5.00,000.00,025.7,024.7,000.0,034.1,027.1,16.5,0000.0,0012.91,0006.82,0006.14
2024-01-24 03:43:00,SystemResetWarning,0825.9,5.00,000.00,025.7,024.7,000.0,034.1,027.1,16.2,0000.6,0013.51,0006.83,0006.12
2024-01-24 03:44:00,SystemResetWarning,0825.9,5.00,000.00,025.7,024.7,000.0,034.1,027.1,16.0,0002.6,0013.94,0006.81,0006.12
2024-01-24 03:45:00,SystemResetWarning,0825.9,5.00,000.00,025.7,024.7,000.0,034.1,027.1,16.0,0000.2,0014.01,0006.80,0006.08
2024-01-24 03:46:00,SystemResetWarning,0825.9,5.00,000.00,025.7,024.7,000.0,034.1,027.1,15.8,0000.0,0014.12,0006.76,0006.05
2024-01-24 03:47:00,SystemResetWarning,0825.9,4.99,000.00,025.7,024.7,000.0,034.1,027.1,15.7,0000.0,0014.10,0006.69,0006.01
2024-01-24 03:48:00,SystemResetWarning,0826.0,4.99,000.00,025.7,024.7,000.0,034.1,027.1,15.7,0000.0,0013.37,0006.62,0005.96
2024-01-24 03:49:00,SystemResetWarning,0826.0,4.99,000.00,025.7,024.7,000.0,034.1,027.1,15.7,0000.0,0012.82,0006.54,0005.87
2024-01-24 03:50:00,SystemResetWarning,0825.9,5.00,000.00,025.7,024.7,000.0,034.1,027.1,15.7,0000.0,0012.53,0006.42,0005.78
2024-01-24 03:51:00,SystemResetWarning,0826.0,5.01,000.00,025.7,024.7,000.0,034.1,027.1,15.6,0000.0,0011.87,0006.34,0005.70
2024-01-24 03:52:00,SystemResetWarning,0826.0,5.00,000.00,025.7,024.7,000.0,034.1,027.1,15.6,0000.0,0011.77,0006.27,0005.62
2024-01-24 03:53:00,SystemResetWarning,0825.9,5.00,000.00,025.7,024.7,000.0,034.1,027.1,15.6,0000.0,0011.85,0006.17,0005.55
2024-01-24 03:54:00,SystemResetWarning,0825.9,5.00,000.00,025.7,024.7,000.0,034.1,027.1,15.5,0000.0,0011.75,0006.06,0005.47
2024-01-24 03:55:00,SystemResetWarning,0826.0,5.00,000.00,025.7,024.7,000.0,034.1,027.1,15.5,0000.0,0011.46,0006.01,0005.41
2024-01-24 03:56:00,SystemResetWarning,0825.9,5.00,000.00,025.7,024.7,000.0,034.1,027.1,15.5,0000.0,0012.91,0005.98,0005.36
2024-01-24 03:57:00,SystemResetWarning,0825.9,5.00,000.00,025.7,024.7,000.0,034.1,027.1,15.5,0000.0,0012.81,0005.89,0005.29
2024-01-24 03:58:00,SystemResetWarning,0825.9,5.00,000.00,025.7,024.6,000.0,034.1,027.0,15.5,0000.0,0012.38,0005.82,0005.22
2024-01-24 03:59:00,SystemResetWarning,0825.9,4.99,000.00,025.7,024.6,000.0,034.0,027.0,15.4,0000.0,0012.40,0005.78,0005.16
